FW6905 Weather Reports


Display with metric or nautical units.
time (UTC)temp
F
wind
direction
speed
MPH
gust
MPH
rain 1hr
in
rain 24hr
in
rain mn
in
humidity
%
barometer
mb
20260504012005 47 68 0.0 2.0 0.00 0.00 0.00 71 1019.8
20260504011505 47 72 0.0 2.0 0.00 0.00 0.00 71 1019.8
20260504011005 48 70 0.0 3.0 0.00 0.00 0.00 71 1019.8
20260504010505 47 80 2.0 3.0 0.00 0.00 0.00 70 1019.8
20260504010005 47 100 2.0 2.0 0.00 0.00 0.00 72 1019.8
20260504005505 48 111 1.0 2.0 0.00 0.00 0.00 71 1019.8
20260504005005 48 112 0.0 2.0 0.00 0.00 0.00 69 1019.8
20260504004005 48 87 2.0 2.0 0.00 0.00 0.00 70 1018.8
20260504003504 48 68 1.0 2.0 0.00 0.00 0.00 69 1018.8
20260504002505 48 53 0.0 2.0 0.00 0.00 0.00 70 1019.8
20260504002005 48 61 0.0 2.0 0.00 0.00 0.00 70 1019.8
20260504001006 48 90 2.0 2.0 0.00 0.00 0.00 70 1019.8
20260504000004 48 90 0.0 2.0 0.00 0.00 0.00 69 1019.8
20260503235505 48 90 0.0 2.0 0.00 0.00 0.00 70 1018.8
20260503235005 49 94 2.0 3.0 0.00 0.00 0.00 70 1018.8
20260503234505 49 90 2.0 3.0 0.00 0.00 0.00 69 1018.8
20260503233505 49 59 1.0 3.0 0.00 0.00 0.00 66 1019.8
20260503232505 49 0 0.0 0.0 0.00 0.00 0.00 67 1018.8
20260503232004 49 0 0.0 0.0 0.00 0.00 0.00 67 1018.8
20260503231505 49 0 0.0 0.0 0.00 0.00 0.00 67 1018.8
20260503230505 49 112 0.0 2.0 0.00 0.00 0.00 66 1019.8
20260503230005 49 100 0.0 3.0 0.00 0.00 0.00 66 1019.8
20260503225505 49 90 1.0 3.0 0.00 0.00 0.00 66 1018.8
20260503225005 49 15 0.0 2.0 0.00 0.00 0.00 65 1018.8
20260503224505 49 0 0.0 0.0 0.00 0.00 0.00 64 1018.8
20260503224004 50 0 0.0 0.0 0.00 0.00 0.00 65 1019.8
20260503223505 50 90 0.0 1.0 0.00 0.00 0.00 65 1019.8
20260503223006 50 90 0.0 2.0 0.00 0.00 0.00 64 1019.8
20260503222504 50 90 0.0 2.0 0.00 0.00 0.00 65 1019.8
20260503222005 50 60 0.0 3.0 0.00 0.00 0.00 64 1019.8
20260503221504 50 60 0.0 3.0 0.00 0.00 0.00 63 1019.8
20260503220504 50 115 2.0 2.0 0.00 0.00 0.00 65 1019.8
20260503214507 51 71 0.0 2.0 0.00 0.00 0.00 61 1020.8
20260503214006 51 91 0.0 2.0 0.00 0.00 0.00 60 1019.8
20260503213507 51 108 1.0 2.0 0.00 0.00 0.00 61 1019.8
20260503213006 51 112 1.0 2.0 0.00 0.00 0.00 61 1019.8
20260503212507 51 111 2.0 2.0 0.00 0.00 0.00 61 1019.8
20260503211506 51 35 0.0 2.0 0.00 0.00 0.00 59 1019.8
20260503211007 52 55 0.0 2.0 0.00 0.00 0.00 59 1018.8
20260503210506 52 88 0.0 2.0 0.00 0.00 0.00 59 1018.8
20260503210007 52 80 1.0 2.0 0.00 0.00 0.00 59 1018.8
20260503205506 52 50 2.0 2.0 0.00 0.00 0.00 58 1019.8
20260503205007 52 82 0.0 2.0 0.00 0.00 0.00 58 1019.8
20260503204506 52 89 0.0 2.0 0.00 0.00 0.00 58 1019.8
20260503204006 53 0 0.0 0.0 0.00 0.00 0.00 58 1019.8
20260503203507 53 0 0.0 0.0 0.00 0.00 0.00 56 1019.8
20260503203006 53 0 0.0 0.0 0.00 0.00 0.00 56 1019.8
20260503202507 53 0 0.0 0.0 0.00 0.00 0.00 56 1019.8
20260503202006 53 68 0.0 1.0 0.00 0.00 0.00 55 1019.8
20260503201507 54 68 0.0 1.0 0.00 0.00 0.00 53 1019.8
20260503201006 54 0 0.0 0.0 0.00 0.00 0.00 54 1019.8
20260503200506 54 0 0.0 0.0 0.00 0.00 0.00 52 1019.8
20260503195006 55 314 0.0 1.0 0.00 0.00 0.00 51 1019.8
20260503194006 56 330 1.0 2.0 0.00 0.00 0.00 50 1019.8
20260503193507 56 359 1.0 2.0 0.00 0.00 0.00 48 1019.8
20260503193006 56 46 0.0 2.0 0.00 0.00 0.00 48 1019.8
20260503192507 56 0 0.0 0.0 0.00 0.00 0.00 47 1019.8
20260503192006 57 0 0.0 0.0 0.00 0.00 0.00 47 1019.8
20260503191506 57 26 0.0 2.0 0.00 0.00 0.00 45 1019.8
20260503190506 58 37 0.0 2.0 0.00 0.00 0.00 43 1019.8
20260503185506 59 71 0.0 2.0 0.00 0.00 0.00 41 1018.8
20260503185007 59 73 0.0 2.0 0.00 0.00 0.00 40 1018.8
20260503184506 60 90 0.0 1.0 0.00 0.00 0.00 39 1018.8
20260503184006 60 0 0.0 0.0 0.00 0.00 0.00 38 1018.8
20260503183506 61 0 0.0 0.0 0.00 0.00 0.00 38 1018.8
20260503183006 61 314 0.0 1.0 0.00 0.00 0.00 37 1018.8
20260503182506 62 335 0.0 2.0 0.00 0.00 0.00 38 1018.8
20260503181506 63 10 0.0 2.0 0.00 0.00 0.00 34 1018.8
20260503181007 64 90 0.0 2.0 0.00 0.00 0.00 33 1018.8
20260503180506 64 90 1.0 2.0 0.00 0.00 0.00 34 1018.8
20260503180007 65 203 0.0 2.0 0.00 0.00 0.00 32 1018.8
20260503174506 66 223 1.0 3.0 0.00 0.00 0.00 30 1018.8
20260503174007 67 244 0.0 4.0 0.00 0.00 0.00 30 1019.8
20260503173008 68 247 2.0 4.0 0.00 0.00 0.00 28 1019.8
20260503172506 69 251 2.0 4.0 0.00 0.00 0.00 28 1018.8
20260503172006 69 242 1.0 4.0 0.00 0.00 0.00 28 1018.8
20260503171506 70 223 3.0 4.0 0.00 0.00 0.00 28 1018.8
20260503170506 71 234 3.0 4.0 0.00 0.00 0.00 27 1018.8
20260503150506 75 208 3.0 13.0 0.00 0.00 0.00 24 1019.8
20260503131006 77 227 5.0 9.0 0.00 0.00 0.00 23 1019.8
20260503130506 77 246 3.0 11.0 0.00 0.00 0.00 22 1019.8
20260503110506 77 206 4.0 8.0 0.00 0.00 0.00 28 1018.8
20260503090506 71 261 4.0 9.0 0.00 0.00 0.00 37 1020.8
20260503081506 66 176 0.0 2.0 0.00 0.00 0.00 50 1020.8
20260503081006 65 231 0.0 2.0 0.00 0.00 0.00 51 1020.8
20260503080506 65 209 1.0 3.0 0.00 0.00 0.00 51 1020.8
20260503072505 59 74 1.0 3.0 0.00 0.00 0.00 59 1021.8
20260503072006 59 88 2.0 3.0 0.00 0.00 0.00 61 1021.8
20260503071506 58 118 2.0 3.0 0.00 0.00 0.00 62 1021.8
20260503071005 58 144 2.0 3.0 0.00 0.00 0.00 63 1021.8
20260503070505 57 66 2.0 3.0 0.00 0.00 0.00 66 1021.8
20260503055005 47 131 0.0 2.0 0.00 0.00 0.00 81 1021.8
20260503054506 47 132 2.0 2.0 0.00 0.00 0.00 81 1021.8
20260503054005 47 131 1.0 2.0 0.00 0.00 0.00 82 1021.8
20260503053506 46 133 1.0 2.0 0.00 0.00 0.00 81 1021.8
20260503053005 46 117 2.0 2.0 0.00 0.00 0.00 82 1021.8
20260503052506 45 95 2.0 2.0 0.00 0.00 0.00 82 1021.8
20260503052005 45 79 1.0 3.0 0.00 0.00 0.00 81 1021.8
20260503051506 44 70 2.0 3.0 0.00 0.00 0.00 80 1021.8
20260503051006 44 46 0.0 2.0 0.00 0.00 0.00 79 1021.8
20260503050506 43 111 0.0 2.0 0.00 0.00 0.00 80 1021.8
20260503050006 43 48 0.0 2.0 0.00 0.00 0.00 79 1021.8
20260503045506 43 22 0.0 2.0 0.00 0.00 0.00 78 1021.8
20260503045006 43 0 0.0 0.0 0.00 0.00 0.00 78 1021.8
20260503044505 43 0 0.0 0.0 0.00 0.00 0.00 79 1021.8
20260503043506 43 0 0.0 0.0 0.00 0.00 0.00 78 1021.8
20260503043005 43 111 0.0 2.0 0.00 0.00 0.00 76 1021.8
20260503042506 43 112 0.0 2.0 0.00 0.00 0.00 76 1021.8
20260503042005 43 112 0.0 2.0 0.00 0.00 0.00 76 1021.8
20260503041005 43 71 2.0 3.0 0.00 0.00 0.00 75 1020.8
20260503040506 43 46 1.0 2.0 0.00 0.00 0.00 75 1020.8
20260503040006 43 0 0.0 0.0 0.00 0.00 0.00 75 1020.8
20260503035505 43 0 0.0 0.0 0.00 0.00 0.00 75 1021.8
20260503035006 43 0 0.0 0.0 0.00 0.00 0.00 75 1021.8
20260503034505 43 0 0.0 0.0 0.00 0.00 0.00 75 1021.8
20260503034006 43 0 0.0 0.0 0.00 0.00 0.00 75 1021.8
20260503033505 43 94 0.0 2.0 0.00 0.00 0.00 74 1021.8
20260503033006 43 99 0.0 2.0 0.00 0.00 0.00 74 1021.8
20260503032506 43 107 1.0 2.0 0.00 0.00 0.00 75 1021.8
20260503032006 43 94 1.0 2.0 0.00 0.00 0.00 75 1021.8
20260503031506 43 68 0.0 2.0 0.00 0.00 0.00 74 1021.8
20260503031006 43 68 1.0 2.0 0.00 0.00 0.00 75 1021.8
20260503030005 44 30 0.0 2.0 0.00 0.00 0.00 73 1021.8
20260503025506 44 68 0.0 3.0 0.00 0.00 0.00 73 1021.8
20260503025005 44 77 2.0 3.0 0.00 0.00 0.00 74 1021.8
20260503024506 44 89 1.0 2.0 0.00 0.00 0.00 73 1021.8
20260503024005 44 87 2.0 2.0 0.00 0.00 0.00 73 1021.8
20260503023506 44 1 0.0 2.0 0.00 0.00 0.00 73 1021.8
20260503023006 44 1 1.0 2.0 0.00 0.00 0.00 74 1021.8
20260503022006 44 27 0.0 2.0 0.00 0.00 0.00 71 1021.8
20260503021505 44 27 0.0 2.0 0.00 0.00 0.00 72 1021.8
20260503021006 44 135 0.0 2.0 0.00 0.00 0.00 73 1021.8
20260503020506 44 135 0.0 2.0 0.00 0.00 0.00 72 1021.8
20260503020006 44 130 1.0 2.0 0.00 0.00 0.00 73 1021.8
20260503015506 45 100 1.0 2.0 0.00 0.00 0.00 72 1021.8
20260503015006 45 70 1.0 2.0 0.00 0.00 0.00 72 1021.8
20260503014005 45 97 2.0 2.0 0.00 0.00 0.00 74 1021.8
20260503013506 45 82 2.0 2.0 0.00 0.00 0.00 71 1021.8
20260503013006 45 48 1.0 2.0 0.00 0.00 0.00 71 1021.8